Home   Weather   Columbus   Past weeks

Flag for USA Past Weather in Columbus, Ohio, USA — Yesterday and Last 2 Weeks

Now
59 °F

Overcast.


Feels Like: 56 °F
Forecast: 51 / 75 °F
Wind: 15 mph from East

Location: John Glenn Columbus International Airport

Current Time: Apr 24, 2017 at 9:25:52 pm

Latest Report: Apr 24, 2017 at 8:51 pm


Visibility: 10 mi

Pressure: 29.89 "Hg

Humidity: 67%

Dew Point: 48 °F

Location of ColumbusLocation

Past Weather in Columbus — Graph

°F

Columbus Temperature Yesterday

Maximum temperature yesterday: 69 °F (at 2:51 pm)
Minimum temperature yesterday: 39 °F (at 3:51 am)
Average temperature yesterday: 55 °F

High & Low Weather Summary for the Past Weeks

 TemperatureHumidityPressure
High83 °F (Apr 20, 3:51 pm)97% (Apr 11, 11:51 am)30.41 "Hg (Apr 11, 11:51 am)
Low39 °F (Apr 23, 3:51 am)20% (Apr 9, 7:51 pm)29.83 "Hg (Apr 21, 2:51 am)
Average63 °F58%30.09 "Hg
* Reported Apr 9 7:51 pm — Apr 24 7:51 pm, Columbus, Weather by CustomWeather, © 2017

Note: Actual official high and low records may vary slightly from our data, if they occured in-between our weather recording intervals... More about our weather records

Advertising

Columbus Weather History for the Previous 24 Hours

Scroll right to see more
 ConditionsComfort  
Time TempWeatherWind HumidityBarometerVisibility
7:51 pm
Mon, Apr 24
62 °FBroken clouds.15 mph62%29.86 "Hg10 mi
6:51 pm65 °FPartly sunny.16 mph56%29.86 "Hg10 mi
5:51 pm66 °FPartly sunny.16 mph56%29.88 "Hg10 mi
4:51 pm67 °FMostly cloudy.22 mph55%29.88 "Hg10 mi
3:51 pm69 °FOvercast.17 mph51%29.89 "Hg10 mi
2:51 pm69 °FOvercast.16 mph49%29.90 "Hg10 mi
1:51 pm71 °FMostly cloudy.13 mph45%29.91 "Hg10 mi
12:51 pm72 °FScattered clouds.15 mph43%29.90 "Hg10 mi
11:51 am69 °FPassing clouds.12 mph39%29.92 "Hg10 mi
10:51 am66 °FPassing clouds.14 mph42%29.94 "Hg9 mi
9:51 am61 °FPassing clouds.10 mph48%29.96 "Hg9 mi
8:51 am56 °FScattered clouds.10 mph53%29.96 "Hg10 mi
7:51 am52 °FScattered clouds.8 mph57%29.96 "Hg10 mi
6:51 am46 °FPassing clouds.6 mph66%29.97 "Hg10 mi
5:51 am45 °FPassing clouds.8 mph71%29.95 "Hg10 mi
4:51 am48 °FPassing clouds.3 mph66%29.95 "Hg10 mi
3:51 am49 °FPassing clouds.6 mph66%29.96 "Hg10 mi
2:51 am50 °FPassing clouds.8 mph63%29.97 "Hg10 mi
1:51 am52 °FPassing clouds.7 mph61%29.98 "Hg10 mi
12:51 am55 °FPassing clouds.13 mph55%29.98 "Hg10 mi
11:51 pm
Sun, Apr 23
56 °FPassing clouds.9 mph53%30.00 "Hg10 mi
10:51 pm57 °FPassing clouds.9 mph47%30.00 "Hg10 mi
9:51 pm58 °FPassing clouds.6 mph46%30.00 "Hg10 mi
Weather by CustomWeather, © 2017

See weather overviewHow to use our weather pages